Погода в Орловке

Россия / Ставропольский край     44°41′18″N   44°10′16″E
темп.,
°C
ветер,
м/с
пор.,
м/с
влажн.,
%
обл.,
%
осадки,
мм/ч
давл.,
гПа
погр.,
м
12 апреля, пн
пн1200:00+10сз227495 0.0 101626
03:00+9сз3481100 0.0 101656
06:00+9зсз3581100 0.0 1017137
09:00+12сз5670100 0.1 1019638
12:00+16ссз4356100 0.0 10191141
15:00+15сз3361100 0.1 1020966
18:00+12з5781100 0.0 1021303
21:00+10зсз478899 0.0 1022246
13 апреля, вт
вт1300:00+10зсз3589100 0.0 1022209
03:00+9сз3590100 0.0 1022197
06:00+10сз2391100 0.0 1022159
09:00+12ссв2280100 0.0 1022369
12:00+13св127399 0.0 1021486
15:00+17ююз456041 0.0 1020985
18:00+13з4581100 0.0 1020244
21:00+10с2389100 0.0 102053
14 апреля, ср
ср1400:00+9всв3767100 0.0 1018141
03:00+8всв2263100 0.0 101723
06:00+8с1265100 0.0 101620
09:00+13ссз2251100 0.0 1016391
12:00+15вюв3345100 0.0 1015773
15:00+16в1247100 0.0 10151024
18:00+14вюв2365100 0.0 101650
21:00+12ююз337499 0.3 101668
15 апреля, чт
чт1500:00+10зсз358585 0.0 1016134
03:00+9з3491100 0.0 101669
06:00+8зюз35929 0.0 101797
09:00+14зсз34670 0.0 1016720
12:00+18зсз33500 0.0 10151281
15:00+20сз23400 0.0 10141560
18:00+18сз22496 0.0 101413
21:00+14с2259100 0.0 101511
16 апреля, пт
пт1600:00+13ссв2263100 0.0 101412
03:00+11ссв117199 0.0 101410
06:00+11сз227476 0.0 101517
09:00+16сз555890 0.0 1016732
12:00+18ссз5554100 0.0 10161570
15:00+14сз7979100 1.2 1017645
18:00+13сз4679100 0.1 1018282
21:00+11зюз33873 0.1 101867